[[{"header":{"parameterUnit":"m.s-1","parameterCategory":1,"la1":30.2991,"la2":30.254,"lo1":-89.0895,"lo2":-89.0444,"dy":0.0017,"dx":0.0017,"nx":28,"ny":28,"refTime":"2025-06-04T09:00:00:Z","depth":0,"parameterNumber":2,"parameterNumberName":"U-component_of_WINDS"},"data":[0,0,0,0,0,0,0,0,0,0,0,0,0,0,0,0,0,0,0,0,0,0,0,0,0,0,0,0,0,0,0,0,0,0,0,0,0,0,0,0,0,0,0,0,0,0,0,0,0,0,0,0,0,0,0,0,0,0,2.7925,2.7926,0,2.8014,2.8015,2.8016,2.8001,2.8,2.7998,2.7997,2.8086,2.809,2.8094,0,0,0,0,0,0,0,0,0,0,0,0,0,2.7742,2.7745,2.7925,2.7926,2.7928,2.8014,2.8015,2.8016,2.8002,2.8,2.7998,2.7996,2.8085,2.809,2.8094,0,0,0,0,0,0,0,0,0,0,0,0,0,2.7825,2.7746,2.7925,2.7931,2.7932,2.8013,2.8015,2.8016,2.8002,2.8,2.7997,2.7995,2.8084,2.8089,2.8095,2.8176,0,0,2.8112,2.8115,0,0,0,0,0,0,0,0,2.782,2.7832,2.7929,2.7931,2.7932,2.7994,2.7983,2.807,2.8002,2.7975,2.7997,2.7994,2.8057,2.8065,2.8087,2.818,2.8184,2.8113,2.8116,2.8119,2.812,0,0,0,0,0,0,0,2.7814,2.7828,2.796,2.793,2.7932,2.7928,2.7937,2.7999,2.8028,2.7978,2.7977,2.7987,2.8058,2.8081,2.8089,2.8185,2.8112,2.8118,2.8121,2.8123,2.8345,2.8348,0,0,0,0,0,0,2.7807,2.7823,2.7957,2.7963,2.7869,2.7933,2.7944,2.7977,2.8027,2.8033,2.7989,2.7986,2.8073,2.8082,2.8092,2.8187,2.8118,2.8124,2.8127,2.8343,2.8346,2.8348,0,0,0,0,0,0,2.7803,2.7819,2.7954,2.7893,2.791,2.7939,2.7976,2.798,2.8003,2.8036,2.8041,2.8008,2.8071,2.8084,2.8154,2.819,2.8126,2.8132,2.834,2.8344,2.8347,2.838,0,0,0,0,0,0,2.7798,2.7818,2.785,2.7894,2.7913,2.8016,2.7978,2.7983,2.8013,2.801,2.8055,2.806,2.807,2.8146,2.816,2.8197,2.8136,2.8337,2.8342,2.8346,2.8376,2.8385,2.8392,0,0,0,0,0,2.7792,2.7856,2.7852,2.7868,2.7953,2.8018,2.8029,2.8039,2.8016,2.8047,2.8068,2.8059,2.8184,2.8153,2.8169,2.8208,2.8334,2.834,2.8346,2.8372,2.8383,2.8392,0,0,0,0,0,0,2.7816,2.7862,2.7858,2.7938,2.7974,2.8015,2.8055,2.8051,2.8094,2.8089,2.81,2.811,2.8181,2.8202,2.8166,2.8287,2.8256,2.8265,2.8271,2.8281,2.8289,2.8282,2.8141,0,0,0,0,0,2.7831,2.788,2.7918,2.7985,2.8003,2.8026,2.8055,2.806,2.8097,2.8112,2.8139,2.8175,2.8222,2.8253,2.8299,2.8379,2.8387,2.8414,2.8422,2.8428,2.8435,2.8476,2.8488,2.8367,2.8367,2.8367,0,0,2.7862,2.7893,2.7924,2.7991,2.8019,2.8068,2.8039,2.8094,2.813,2.8121,2.8188,2.8208,2.8249,2.8324,2.8359,2.8344,2.8471,2.8435,2.844,2.8444,2.8483,2.8495,2.8505,2.8371,2.837,2.8369,0,0,2.7943,2.7973,2.8031,2.806,2.8103,2.8117,2.8131,2.8173,2.8186,2.8254,2.8247,2.829,2.8372,2.8401,2.8426,2.8516,2.8508,2.8531,2.8572,2.8612,2.8621,2.863,2.8659,2.867,2.8538,2.8538,2.8538,0,2.7976,2.8051,2.8061,2.8116,2.8144,2.8138,2.8196,2.8223,2.8279,2.8298,2.8281,2.8382,2.8409,2.8489,2.8511,2.8533,2.8547,2.8525,2.8619,2.8628,2.8636,2.8664,2.8675,2.854,2.854,2.854,2.854,0,2.8088,2.814,2.8181,2.8234,2.8268,2.8324,2.8341,2.8374,2.8376,2.8391,2.8459,2.8492,2.8542,2.8562,2.8565,2.8642,2.8631,2.8617,2.8585,2.8649,2.8676,2.8687,2.8544,2.8543,2.8542,2.8542,0,0,2.8187,2.8244,2.8259,2.8282,2.8328,2.8368,2.8423,2.8472,2.8498,2.8537,2.8581,2.865,2.8636,2.8665,2.867,2.8706,2.8771,2.8687,2.8688,2.8699,2.8855,2.8864,2.8876,2.8767,2.8769,2.8771,2.8851,0,2.827,2.8367,2.8377,2.8463,2.8509,2.8503,2.8551,2.8583,2.8599,2.864,2.8658,2.8705,2.8685,2.8701,2.8736,2.8756,2.8802,2.8751,2.8806,2.8808,2.8794,2.8891,2.8901,2.8975,2.8861,2.8863,2.8865,0,2.8381,2.8421,2.8512,2.8549,2.8569,2.8611,2.8656,2.8696,2.8732,2.8741,2.8772,2.8773,2.8827,2.8795,2.8868,2.8833,2.8856,2.8869,2.8872,2.8876,2.8839,2.8895,2.8999,2.9009,2.8881,2.888,2.8879,0,2.844,2.8518,2.8581,2.8601,2.8648,2.8677,2.8697,2.8732,2.876,2.8799,2.8817,2.8862,2.8886,2.892,2.8932,2.8908,2.9004,2.8973,2.9012,2.9011,2.9031,2.9029,2.9138,2.905,2.905,2.905,2.9049,0,2.8531,2.8586,2.8608,2.8647,2.8707,2.8718,2.8777,2.8796,2.8826,2.8867,2.8866,2.8904,2.8918,2.8959,2.8969,2.9026,2.9038,2.9045,2.9047,2.9044,2.9043,2.9058,2.9053,2.9052,2.9052,2.9051,2.9051,0,2.8607,2.8625,2.8693,2.873,2.8741,2.8784,2.8816,2.8852,2.8867,2.8919,2.8932,2.8955,2.9002,2.9018,2.9076,2.9082,2.9149,2.9147,2.9136,2.9136,2.9172,2.9167,2.9293,2.9308,2.9212,2.9213,2.9214,0,2.8663,2.8704,2.8746,2.8774,2.8795,2.884,2.8868,2.888,2.891,2.8953,2.8984,2.903,2.9068,2.9144,2.9165,2.9208,2.9206,2.9247,2.9212,2.9208,2.9203,2.92,2.9203,2.9253,2.9254,2.9255,2.9255,0,2.8758,2.8764,2.8806,2.885,2.8884,2.8919,2.8953,2.8975,2.8992,2.9025,2.9073,2.9102,2.916,2.9205,2.9249,2.9269,2.9264,2.9266,2.9277,2.9273,2.9264,2.9267,2.9151,2.9263,2.9262,2.9261,2.9261,2.9261,2.8824,2.886,2.8894,2.894,2.8967,2.8998,2.9033,2.9052,2.9093,2.9141,2.9145,2.9196,2.9229,2.9287,2.9309,2.9349,2.9337,2.9353,2.9357,2.936,2.9361,2.926,2.9357,2.9357,2.9357,2.9356,2.9356,0,2.8917,2.8939,2.8981,2.9028,2.9063,2.9056,2.9093,2.9122,2.9167,2.9199,2.9236,2.929,2.9334,2.9358,2.9401,2.9428,2.9426,2.9439,2.9436,2.944,2.9371,2.9356,2.9439,2.9439,2.9439,2.9439,2.9439,2.9439,2.897,2.9029,2.9039,2.9111,2.9132,2.9182,2.9203,2.9231,2.9256,2.9317,2.9353,2.9369,2.9397,2.9442,2.9481,2.9487,2.9502,2.9515,2.9519,2.9453,2.9445,2.9437,2.9423,2.9518,2.9519,2.9584,2.9585,2.9585]},{"header":{"parameterUnit":"m.s-1","parameterCategory":1,"la1":30.2991,"la2":30.254,"lo1":-89.0895,"lo2":-89.0444,"dy":0.0017,"dx":0.0017,"nx":28,"ny":28,"refTime":"2025-06-04T09:00:00:Z","depth":0,"parameterNumber":3,"parameterNumberName":"V-component_of_WINDS"},"data":[0,0,0,0,0,0,0,0,0,0,0,0,0,0,0,0,0,0,0,0,0,0,0,0,0,0,0,0,0,0,0,0,0,0,0,0,0,0,0,0,0,0,0,0,0,0,0,0,0,0,0,0,0,0,0,0,0,0,3.1091,3.1092,0,3.1197,3.1198,3.1199,3.1186,3.1184,3.1183,3.1181,3.1286,3.129,3.1295,0,0,0,0,0,0,0,0,0,0,0,0,0,3.0871,3.0875,3.109,3.1092,3.1093,3.1197,3.1198,3.12,3.1186,3.1184,3.1182,3.118,3.1285,3.129,3.1295,0,0,0,0,0,0,0,0,0,0,0,0,0,3.097,3.0876,3.109,3.1099,3.1101,3.1196,3.1198,3.12,3.1187,3.1184,3.1182,3.1179,3.1283,3.1289,3.1296,3.1388,0,0,3.1316,3.1319,0,0,0,0,0,0,0,0,3.0965,3.0978,3.1096,3.1099,3.1101,3.1176,3.1159,3.1263,3.1187,3.1154,3.1181,3.1178,3.1251,3.126,3.1286,3.1393,3.1398,3.1317,3.1321,3.1323,3.1325,0,0,0,0,0,0,0,3.0958,3.0974,3.1132,3.1098,3.1101,3.1096,3.1107,3.1179,3.1216,3.1157,3.1156,3.1169,3.1252,3.1279,3.1288,3.1399,3.1316,3.1322,3.1326,3.1329,3.1585,3.1588,0,0,0,0,0,0,3.0949,3.0968,3.1129,3.1136,3.1025,3.1102,3.1115,3.1154,3.1215,3.1222,3.1171,3.1168,3.1269,3.128,3.1292,3.1403,3.1323,3.133,3.1333,3.1582,3.1586,3.1589,0,0,0,0,0,0,3.0945,3.0964,3.1125,3.1052,3.1072,3.1109,3.1153,3.1158,3.1185,3.1226,3.1232,3.1193,3.1268,3.1282,3.1364,3.1406,3.1333,3.1339,3.1579,3.1583,3.1587,3.1626,0,0,0,0,0,0,3.0938,3.0962,3.0999,3.1053,3.1076,3.1197,3.1156,3.1162,3.1197,3.1194,3.1248,3.1254,3.1267,3.1354,3.1371,3.1414,3.1344,3.1575,3.1581,3.1586,3.1621,3.1631,3.164,0,0,0,0,0,3.0931,3.1005,3.1001,3.1021,3.1123,3.12,3.1213,3.1227,3.1201,3.1237,3.1263,3.1252,3.1399,3.1363,3.1381,3.1427,3.1573,3.1579,3.1585,3.1617,3.1629,3.164,0,0,0,0,0,0,3.0955,3.1013,3.1009,3.1103,3.1147,3.1197,3.1244,3.124,3.1291,3.1285,3.13,3.1312,3.1394,3.1418,3.1377,3.1518,3.1482,3.1492,3.15,3.1512,3.1521,3.1513,3.1349,0,0,0,0,0,3.0971,3.103,3.1077,3.1156,3.1178,3.1207,3.1241,3.1248,3.1293,3.1311,3.1343,3.1386,3.1441,3.1478,3.1531,3.1624,3.1635,3.1665,3.1674,3.1681,3.169,3.174,3.1753,3.161,3.161,3.161,0,0,3.1006,3.1045,3.1081,3.1162,3.1196,3.1255,3.1223,3.1287,3.133,3.1321,3.14,3.1424,3.1473,3.1561,3.1601,3.1583,3.1732,3.169,3.1695,3.17,3.1748,3.1761,3.1773,3.1614,3.1613,3.1613,0,0,3.1099,3.1135,3.1204,3.1239,3.1292,3.1311,3.1327,3.1378,3.1395,3.1474,3.1468,3.1518,3.1614,3.1649,3.1679,3.1783,3.1775,3.18,3.1848,3.1896,3.1907,3.1917,3.1953,3.1966,3.1808,3.1808,3.1808,0,3.1135,3.1225,3.124,3.1305,3.134,3.1334,3.1403,3.1436,3.1503,3.1526,3.1506,3.1625,3.1658,3.1753,3.1778,3.1803,3.182,3.1794,3.1905,3.1915,3.1925,3.1959,3.1973,3.1811,3.1811,3.181,3.181,0,3.1266,3.1329,3.1378,3.1444,3.1484,3.1551,3.1573,3.1612,3.1615,3.1635,3.1715,3.1753,3.1814,3.1837,3.184,3.1931,3.1919,3.1902,3.1865,3.1941,3.1973,3.1987,3.1815,3.1814,3.1813,3.1812,0,0,3.1379,3.1451,3.1469,3.1498,3.1555,3.1603,3.1668,3.1728,3.176,3.1806,3.186,3.194,3.1924,3.1958,3.1965,3.2007,3.2086,3.1985,3.1986,3.2002,3.2187,3.22,3.2215,3.208,3.2083,3.2085,3.2183,0,3.1477,3.1595,3.1608,3.1712,3.1769,3.1763,3.182,3.186,3.188,3.1929,3.195,3.2007,3.1982,3.2002,3.2044,3.2067,3.2123,3.206,3.2129,3.2131,3.2118,3.2232,3.2246,3.2337,3.2196,3.2198,3.22,0,3.1608,3.1658,3.1768,3.1816,3.184,3.1891,3.1946,3.1994,3.2039,3.205,3.2087,3.2088,3.2153,3.2114,3.2203,3.216,3.2188,3.2204,3.2207,3.2215,3.217,3.2242,3.2366,3.238,3.222,3.2218,3.2217,0,3.1678,3.1773,3.1851,3.1876,3.1934,3.197,3.1995,3.2037,3.2072,3.2119,3.2141,3.2195,3.2225,3.2266,3.228,3.225,3.2368,3.233,3.2378,3.2377,3.2403,3.2401,3.2534,3.2422,3.2421,3.2421,3.2421,0,3.1787,3.1854,3.1883,3.1931,3.2005,3.2019,3.2092,3.2115,3.2152,3.2203,3.22,3.2247,3.2264,3.2313,3.2325,3.2396,3.2409,3.2419,3.2421,3.2419,3.2418,3.2438,3.2432,3.2425,3.2424,3.2423,3.2423,0,3.1878,3.1901,3.1985,3.2033,3.2046,3.2099,3.2139,3.2184,3.2202,3.2266,3.2282,3.2311,3.2368,3.2387,3.2456,3.2464,3.2546,3.2543,3.2532,3.2532,3.2579,3.2574,3.2729,3.2749,3.2624,3.2625,3.2626,0,3.1946,3.1998,3.2051,3.2085,3.2113,3.2168,3.2203,3.2218,3.2255,3.2308,3.2346,3.2404,3.2451,3.2542,3.2568,3.2621,3.2619,3.2669,3.2626,3.2622,3.2619,3.2616,3.262,3.2677,3.2679,3.268,3.268,0,3.2064,3.2072,3.2124,3.218,3.2222,3.2266,3.2309,3.2336,3.2357,3.2398,3.2458,3.2494,3.2565,3.2621,3.2674,3.2698,3.2693,3.2694,3.2707,3.2706,3.2697,3.2702,3.2554,3.269,3.2689,3.2688,3.2688,3.2688,3.2145,3.219,3.2235,3.2292,3.2326,3.2365,3.2409,3.2434,3.2484,3.2544,3.2549,3.2613,3.2653,3.2725,3.2751,3.28,3.2785,3.2805,3.281,3.2815,3.2819,3.2689,3.2809,3.2809,3.2809,3.2809,3.2809,0,3.2262,3.229,3.2343,3.2403,3.2447,3.2439,3.2485,3.2522,3.2579,3.2618,3.2664,3.2732,3.2786,3.2816,3.2869,3.2903,3.2901,3.2916,3.2914,3.2919,3.2829,3.2812,3.2916,3.2916,3.2916,3.2916,3.2916,3.2916,3.2328,3.2404,3.2417,3.2508,3.2535,3.2599,3.2626,3.2661,3.2693,3.2769,3.2814,3.2834,3.2868,3.2924,3.2973,3.298,3.2999,3.3016,3.3021,3.2937,3.2926,3.2915,3.2899,3.302,3.302,3.3108,3.3108,3.3109]}]]